This is the latest recevied weather packets stored in our database for station/object KC8BSD. If no packets are shown the sender has not sent any weather packets the latest 10 day(s).
| Time | Temp. | Humidity | Pressure | Rain* | Wind** | Luminosity | Snow |
|---|---|---|---|---|---|---|---|
| 1778004755 | 13.89° C | 63% | 1008.7 hPa | 0 mm | - | 333 W/m² | - |
| 1778004452 | 13.89° C | 60% | 1008.7 hPa | 0 mm | - | 222 W/m² | - |
| 1778004148 | 13.89° C | 59% | 1008.3 hPa | 0 mm | - | 370 W/m² | - |
| 1778003845 | 13.89° C | 61% | 1008.2 hPa | 0 mm | - | 373 W/m² | - |
| 1778003541 | 13.89° C | 59% | 1008.4 hPa | 0 mm | - | 358 W/m² | - |
| 1778003238 | 13.33° C | 60% | 1008.4 hPa | 0 mm | - | 383 W/m² | - |
| 1778002935 | 13.89° C | 64% | 1008.3 hPa | 0 mm | - | 326 W/m² | - |
| 1778002631 | 14.44° C | 66% | 1008.2 hPa | 0 mm | - | 381 W/m² | - |
| 1778002328 | 13.33° C | 67% | 1008.2 hPa | 0 mm | - | 506 W/m² | - |
| 1778002025 | 13.33° C | 68% | 1008.3 hPa | 0 mm | - | 360 W/m² | - |
| 1778001722 | 12.78° C | 70% | 1008 hPa | 0 mm | - | 376 W/m² | - |
| 1778001421 | 12.78° C | 70% | 1008.2 hPa | 0 mm | - | 334 W/m² | - |
| 1778001119 | 12.78° C | 71% | 1008.1 hPa | 0 mm | - | 264 W/m² | - |
| 1778000816 | 12.78° C | 74% | 1008.4 hPa | 0 mm | - | 333 W/m² | - |
| 1778000512 | 12.78° C | 73% | 1008.2 hPa | 0 mm | - | 279 W/m² | - |
| 1778000212 | 13.33° C | 74% | 1008.2 hPa | 0 mm | - | 368 W/m² | - |
| 1777999909 | 12.78° C | 74% | 1008.3 hPa | 0 mm | - | 399 W/m² | - |
| 1777999604 | 12.78° C | 77% | 1008.4 hPa | 0 mm | - | 335 W/m² | - |
| 1777999302 | 11.67° C | 78% | 1008.4 hPa | 0 mm | - | 322 W/m² | - |
| 1777999000 | 11.67° C | 79% | 1008.4 hPa | 0 mm | - | 306 W/m² | - |
| 1777998698 | 11.11° C | 80% | 1008.3 hPa | 0 mm | - | 246 W/m² | - |
| 1777998395 | 11.11° C | 80% | 1008.7 hPa | 0 mm | - | 153 W/m² | - |
| 1777998092 | 11.11° C | 81% | 1008.8 hPa | 0 mm | - | 144 W/m² | - |
| 1777997789 | 11.11° C | 81% | 1008.8 hPa | 0 mm | - | 223 W/m² | - |
| 1777997486 | 11.11° C | 81% | 1008.6 hPa | 1.27 mm | - | 156 W/m² | - |
* Rain latest hour (hover to see other rain measurements)
** Current wind speed in m/s (hover to see current wind gust speed)